{"data":{"norad_id":56824,"epoch":"2026-05-25T03:04:15.356064Z","epoch_age_seconds":68008,"freshness":"FRESH","line1":"1 56824U 23079B   26145.12795551 -.00002958  00000+0 -98081-4 0  9994","line2":"2 56824  43.0037  35.7903 0001146 271.7228  88.3492 15.27560785164890","mean_motion":15.27560785,"eccentricity":0.0001146,"inclination_deg":43.0037,"raan_deg":35.7903,"arg_perigee_deg":271.7228,"mean_anomaly_deg":88.3492,"bstar":-9.8081e-5,"rev_number":16489,"period_min":94.267934483537,"perigee_km":482.32033474496,"apogee_km":483.89293178571,"semimajor_km":6861.2436332653,"source":"CELESTRAK","updated_at":"2026-05-25T13:38:18.162101Z"}}